Location: Waco, TX
(31.5480°N, 97.1670°W)
Time: 10:13:36
(UTC-05:00)

ISS - Pass Details

Date: 19 August 2018
Orbit: 402 x 409 km, 51.6° (Epoch: 16 August)

Event Time Altitude Azimuth Distance (km) Brightness Sun altitude
Rises 17:51:16 0° 311° (NW) 2,314 0.7 27.9°
Reaches altitude 10° 17:53:22 10° 308° (NW) 1,453 -0.1 27.5°
Maximum altitude 17:56:35 61° 227° (SW) 461 -2.7 26.8°
Drops below altitude 10° 17:59:47 10° 147° (SSE) 1,449 -1.2 26.1°
Sets 18:01:52 0° 143° (SE) 2,306 -0.3 25.7°
